Location: Pedimozza
(42.0500°N, 9.3500°E)
Time: 10:02:52
(UTC+00:00)

Unknown - Pass Details

Date: 19 August 2019
Orbit: 548 x 551 km, 53.0° (Epoch: 15 September)

Event Time Altitude Azimuth Distance (km) Brightness Sun altitude
Rises 19:25:57 0° 308° (NW) 2,723 9.1 -12.4°
Reaches altitude 10° 19:28:12 10° 312° (NW) 1,827 7.7 -12.8°
Maximum altitude 19:32:19 61° 34° (NNE) 626 3.8 -13.4°
Enters shadow 19:34:48 23° 108° (ESE) 1,208 4.8 -13.8°
